Theta_e
299 292 288 290 293 293 291 289 287 292 296 291 292 293 294 296 296 295 295 297 299 303 306 308 309 312 315 326 325 325 324 325 326 327 324 325 324 325 327 328 328 328 325 326
293 289 293 295 294 294 291 288 287 291 295 293 292 288 292 293 293 295 294 294 298 301 302 304 306 307 308 311 317 324 325 325 326 327 326 325 326 325 327 328 329 329 326 326
288 292 295 293 292 292 289 286 286 287 292 293 290 287 289 291 294 293 294 295 298 298 299 302 302 304 305 305 307 310 315 326 327 327 327 326 325 325 325 325 326 326 327 327
291 294 292 290 291 291 286 294 290 289 288 284 290 280 285 289 289 291 291 293 296 297 301 301 301 302 304 304 305 306 308 311 314 320 325 324 323 321 323 325 326 326 326 326
289 289 289 289 290 291 289 293 291 291 289 288 285 282 284 288 286 288 291 291 296 297 299 301 302 303 303 306 305 306 306 307 309 311 314 319 321 322 323 323 323 323 322 321
291 294 291 290 292 292 294 291 292 290 289 282 281 280 281 284 286 287 292 294 297 299 300 301 303 304 303 304 305 306 305 305 306 308 309 310 310 310 315 317 316 316 317 317
289 290 292 293 289 293 291 287 278 280 277 275 284 281 283 288 290 291 292 293 296 300 299 300 300 301 302 302 303 304 304 303 304 305 305 307 307 308 308 309 311 311 312 312
282 279 288 292 289 286 287 286 277 272 275 277 284 276 282 289 293 293 293 294 295 295 297 298 298 299 300 301 301 302 303 302 302 303 304 305 306 307 307 308 308 308 308 308
283 283 291 291 291 290 286 282 288 282 278 277 280 284 288 291 291 291 291 291 291 292 293 293 295 296 296 296 297 298 299 300 300 300 301 302 303 305 305 306 307 307 307 307
288 280 288 290 291 291 288 290 280 280 271 273 277 278 279 285 287 289 288 288 289 290 291 292 292 294 295 295 295 297 298 298 299 299 299 300 301 302 304 305 304 304 304 305
290 285 284 288 285 284 286 285 286 284 281 277 276 276 285 286 286 286 287 289 289 289 290 290 292 293 293 293 293 293 294 295 296 297 298 298 298 300 301 302 302 302 302 301
290 285 277 282 287 288 288 285 286 278 278 279 279 277 290 287 287 286 286 288 289 289 289 290 290 292 292 292 293 293 293 294 295 297 297 297 298 298 299 299 299 300 299 300
290 279 271 277 283 287 285 287 287 286 283 280 277 278 289 287 286 286 285 286 288 288 289 290 290 290 291 291 292 292 293 293 294 296 297 297 297 297 297 298 298 298 298 297
292 285 279 275 278 282 280 283 285 285 277 280 279 280 284 285 284 285 286 286 286 287 288 289 289 289 290 291 291 291 292 293 294 294 294 294 295 296 297 298 297 296 296 295
289 280 280 282 283 282 281 281 282 281 283 278 281 282 286 285 284 285 286 287 287 287 288 288 288 289 289 289 290 290 290 292 293 293 293 293 294 295 296 296 296 295 294 293
288 280 278 273 281 281 278 280 281 281 283 284 284 283 290 288 286 284 286 287 286 286 287 288 289 289 289 289 289 290 290 290 292 292 291 292 293 293 294 294 294 294 293 291
282 276 271 269 276 273 269 274 279 281 284 285 281 285 289 286 286 286 286 287 286 287 287 288 288 289 289 289 290 288 289 290 290 290 291 291 291 292 292 293 293 293 292 291
277 275 272 269 267 263 277 280 279 281 284 287 286 287 289 287 287 287 287 286 287 287 288 288 288 288 289 289 289 289 289 289 289 289 288 289 288 289 289 290 290 291 291 290
284 280 269 267 265 274 277 277 277 278 279 286 288 288 287 288 286 284 288 288 288 287 288 289 289 289 288 289 288 288 288 288 288 287 286 286 286 285 285 286 286 287 289 287
282 281 275 265 264 263 277 278 281 282 273 285 289 288 286 286 280 282 287 289 288 289 289 289 289 289 289 288 287 287 287 287 286 285 285 284 285 285 285 286 285 285 285 286
274 271 269 268 265 272 281 281 283 270 276 284 289 288 287 284 285 287 288 288 289 288 288 288 288 287 287 286 286 285 285 285 285 284 284 284 284 284 284 284 284 284 285 285
275 272 270 270 265 267 282 280 277 281 282 284 287 286 286 285 286 287 287 287 287 287 287 286 286 285 285 285 284 284 283 285 284 283 283 282 281 282 284 283 284 284 283 284
274 279 276 277 276 281 283 282 284 284 285 283 285 287 286 284 284 285 285 286 286 287 284 284 284 284 285 285 284 283 283 283 282 277 276 277 280 281 282 283 284 284 285 285
279 282 277 278 280 281 282 283 284 285 285 286 286 287 285 284 285 284 284 284 284 284 284 284 284 283 283 283 282 282 282 280 273 275 277 278 278 280 279 282 283 284 285 285
279 281 278 277 280 280 282 283 284 285 284 285 285 285 285 285 284 284 283 283 284 284 283 282 280 280 279 278 277 276 277 273 274 273 276 277 278 278 280 280 281 282 284 285
281 279 278 276 282 282 283 285 285 284 284 285 284 284 285 285 284 284 283 284 283 281 279 278 277 275 275 275 274 274 271 270 270 275 277 277 278 278 280 281 283 287 288 289
Wind_Speed
4 2 2 6 5 3 8 7 9 12 7 4 11 7 9 11 12 13 12 13 12 9 9 10 10 13 11 9 9 11 10 9 7 6 6 4 5 4 2 3 5 5 6 7
3 3 6 3 5 6 3 7 6 10 11 2 6 6 8 12 13 14 13 12 11 12 11 11 11 13 11 8 10 6 9 10 8 7 6 4 5 3 4 4 4 5 5 6
4 4 3 5 7 4 5 3 4 6 5 1 6 1 5 5 8 14 15 14 11 13 12 11 13 13 13 14 15 16 12 3 6 5 4 3 3 2 4 4 3 5 7 6
6 3 2 6 8 6 6 1 6 5 2 2 3 2 3 6 8 10 12 15 15 15 12 10 8 13 7 15 14 19 18 15 11 7 4 5 5 5 5 7 5 4 2 4
1 3 5 5 3 5 8 9 11 1 3 3 2 3 3 8 8 15 10 12 10 11 14 14 11 10 12 11 14 15 17 17 15 12 11 3 1 1 3 3 5 6 6 6
11 2 2 4 10 8 10 11 6 4 3 2 6 1 3 10 10 12 13 12 9 11 10 15 15 11 15 13 13 16 16 15 15 13 14 12 12 11 6 5 6 5 5 6
4 8 3 2 8 4 8 9 2 2 2 1 6 5 2 8 9 8 12 14 14 12 10 7 8 13 15 18 15 11 16 18 14 13 15 14 11 11 13 10 6 8 5 4
3 2 1 4 2 3 4 4 2 2 3 3 7 5 5 2 5 6 8 9 10 8 7 9 15 14 13 15 11 13 15 15 14 11 12 9 11 6 4 7 6 6 5 4
4 2 4 1 2 3 5 4 4 4 2 1 2 3 3 5 7 9 10 9 8 8 10 13 13 12 11 9 6 11 12 13 12 9 10 9 9 9 7 7 6 4 2 6
2 4 3 2 4 4 1 3 1 2 3 2 1 3 3 4 5 8 8 8 8 8 11 9 6 6 5 6 7 9 10 6 7 6 7 7 9 8 8 5 7 6 7 7
3 2 1 4 4 3 2 1 3 1 1 2 0 2 4 7 5 6 6 7 7 6 6 4 4 3 6 5 7 7 9 8 7 5 4 6 5 5 5 5 7 4 5 5
4 2 3 3 5 1 1 2 4 1 1 1 2 2 6 8 7 7 6 4 4 5 4 4 6 6 6 6 8 9 8 6 6 6 6 5 4 4 5 6 6 5 6 5
3 1 3 2 2 4 2 3 3 5 1 4 0 2 6 7 7 6 5 5 4 5 6 5 6 6 6 7 7 7 7 7 6 6 6 7 6 6 6 6 5 5 5 5
1 1 3 2 2 2 3 1 2 4 2 2 4 6 7 8 8 7 6 5 5 5 6 6 6 6 7 6 7 8 9 8 7 7 6 6 5 5 4 5 5 5 5 5
2 2 2 7 8 3 5 7 7 6 7 3 4 6 12 10 9 8 6 6 5 6 6 5 5 5 5 6 6 7 7 7 7 7 7 9 8 6 6 5 4 4 4 4
3 2 2 5 6 5 7 8 9 10 9 8 7 9 10 9 9 8 8 6 5 6 5 5 5 5 6 6 5 5 5 6 6 6 7 6 7 7 7 6 5 6 6 6
5 4 3 5 4 4 8 10 14 7 7 8 7 6 9 8 11 10 9 8 7 6 4 4 5 5 5 6 6 6 6 6 6 6 6 7 6 6 7 6 6 5 4 4
4 4 3 4 4 2 7 1 1 7 7 9 1 3 11 9 7 7 6 6 7 6 5 5 4 5 5 3 5 5 5 6 6 6 6 6 6 7 7 6 5 4 3 3
4 4 2 3 3 8 8 4 5 6 7 9 8 6 7 7 6 3 7 7 6 5 4 4 4 3 3 4 5 6 6 6 6 6 6 6 5 5 5 5 5 4 5 4
2 2 4 2 4 7 3 4 2 2 7 10 11 9 9 10 7 6 7 7 7 6 5 5 3 1 3 5 5 6 6 5 5 5 5 5 5 6 6 5 4 1 1 2
3 0 5 4 4 9 5 7 4 7 7 1 9 10 12 8 5 9 10 6 7 6 6 4 4 2 1 2 3 4 4 4 4 4 4 4 4 5 5 4 2 3 3 2
10 8 5 3 2 12 7 5 7 4 3 1 5 7 9 6 6 11 9 9 8 8 6 4 3 1 1 1 2 3 4 4 5 5 5 5 5 4 4 5 6 5 4 4
6 8 8 11 9 2 9 4 7 1 2 2 3 6 8 9 7 8 8 8 7 8 5 4 3 1 2 1 1 3 5 6 6 4 5 4 6 5 4 4 6 6 5 6
4 5 4 3 8 9 9 7 4 3 3 5 4 6 8 9 9 8 8 7 6 5 5 3 3 1 2 1 2 3 5 4 3 5 6 5 5 6 4 3 4 5 7 7
7 10 7 6 7 4 6 9 8 7 4 5 6 7 9 9 8 8 7 7 6 6 4 4 4 4 4 2 2 4 4 3 4 4 5 5 4 4 5 4 5 5 8 8
7 9 9 9 9 8 6 13 10 11 10 9 9 7 5 8 9 7 7 7 6 6 3 3 3 3 3 4 4 5 5 2 3 5 5 4 4 4 5 6 8 11 17 17
Wind_Direction
158 299 67 17 354 321 301 280 308 315 318 322 0 16 28 6 2 0 351 344 333 339 344 340 336 27 332 164 161 165 164 164 165 170 160 166 185 223 231 224 203 214 183 187
193 246 66 311 276 309 302 306 308 298 333 108 343 19 353 9 351 356 4 341 343 360 358 8 10 35 341 53 65 162 176 174 181 181 166 161 171 202 202 215 202 232 210 200
282 360 19 320 300 326 315 197 256 242 309 95 330 93 6 339 346 359 1 347 5 10 4 8 27 17 309 44 53 53 27 125 156 156 150 142 149 220 195 223 208 221 208 207
274 76 315 318 293 18 310 128 321 319 313 324 27 297 24 356 341 355 353 1 1 3 16 10 24 40 323 47 50 57 47 31 24 32 150 168 188 197 199 202 200 198 53 23
303 360 343 297 41 351 260 329 296 92 285 235 356 286 11 4 344 331 336 349 350 13 13 11 12 36 51 44 49 60 54 42 30 18 46 34 305 251 99 73 79 76 56 40
263 81 272 321 307 261 278 281 239 219 219 141 283 96 28 7 338 325 331 341 350 10 15 9 26 262 49 46 44 61 60 47 36 19 33 43 41 34 59 61 77 63 62 42
228 204 133 258 302 122 356 320 342 266 342 360 344 52 60 355 340 335 357 2 357 20 2 344 317 27 31 36 17 45 65 55 32 14 26 26 28 32 46 22 37 67 44 65
314 288 349 14 51 333 309 328 87 305 341 317 44 13 342 60 131 98 75 29 20 1 354 11 8 22 23 33 359 27 45 64 43 21 20 17 18 41 10 53 35 47 57 19
344 92 137 67 351 350 350 56 355 300 33 342 107 106 165 41 52 56 49 41 27 23 23 23 13 15 9 7 342 35 26 35 45 20 23 11 32 19 12 23 36 15 359 40
53 296 72 121 203 215 211 332 282 285 349 332 138 102 111 86 41 58 46 50 35 25 30 32 7 22 9 1 4 38 47 45 33 20 25 352 21 14 23 8 47 13 29 38
331 115 251 214 36 31 316 63 309 243 142 290 224 146 97 106 82 87 77 57 52 25 40 13 34 23 44 23 32 27 34 21 32 12 36 32 2 29 15 17 35 5 47 42
62 38 277 31 119 150 315 344 281 270 243 162 265 200 124 124 124 120 103 85 95 109 77 38 35 35 32 28 30 37 36 23 16 354 27 42 14 41 41 36 32 16 37 39
141 72 315 296 155 194 231 123 285 277 267 238 214 203 136 134 134 126 122 107 82 63 78 63 44 32 25 27 27 35 34 22 19 15 31 32 20 20 35 49 34 35 39 36
341 84 245 260 34 18 302 289 242 280 293 275 234 151 177 178 158 148 153 137 96 83 72 69 50 40 30 33 22 24 29 19 10 24 32 34 12 28 47 46 50 39 36 39
233 190 225 286 293 280 264 273 278 253 259 239 327 186 191 187 168 165 160 130 113 85 70 56 66 58 48 40 29 30 26 14 7 18 17 14 358 9 21 29 35 43 50 48
167 145 96 285 265 248 264 250 254 251 245 260 269 281 167 163 146 146 153 158 129 114 87 56 59 51 39 37 23 29 23 21 14 18 19 9 7 7 8 12 13 16 18 22
149 138 108 264 332 324 307 226 218 205 199 198 205 219 148 159 161 165 162 160 146 124 98 56 58 59 35 26 14 10 3 13 25 21 13 14 5 8 3 358 7 14 21 17
132 127 113 247 7 287 238 138 53 237 221 217 280 191 166 158 148 144 151 139 136 141 126 104 68 47 41 22 24 3 2 13 17 19 19 13 8 2 357 360 356 354 4 13
161 150 139 148 216 289 307 192 174 185 257 220 191 188 146 127 85 134 151 139 145 121 88 69 58 54 20 27 13 11 3 9 13 10 10 360 3 346 353 4 353 344 338 330
329 347 136 114 171 226 246 161 77 103 293 213 172 175 144 133 162 216 162 127 118 116 108 99 83 21 355 12 14 12 356 353 352 343 332 327 337 344 338 336 330 276 291 290
131 310 181 205 231 282 219 150 169 97 242 193 168 165 155 172 201 154 136 128 128 122 125 138 159 145 47 16 25 353 337 354 324 318 313 313 305 292 282 293 299 288 299 295
170 162 186 171 162 266 133 76 184 209 335 195 147 159 152 137 100 126 130 134 135 138 140 133 125 120 314 55 43 346 331 304 330 333 320 305 295 292 302 316 302 302 290 290
211 182 178 192 209 202 186 160 210 110 167 224 143 145 144 144 143 138 137 144 152 151 154 138 140 59 342 143 73 324 302 326 323 319 299 291 294 286 269 283 298 309 301 281
250 183 201 118 237 218 210 235 197 188 216 190 164 152 151 152 145 143 140 143 147 149 159 144 117 237 260 26 352 276 312 325 331 317 316 313 303 302 277 250 249 257 266 263
191 152 170 268 278 329 223 205 200 203 213 159 161 169 168 146 153 154 153 159 160 157 158 158 172 224 237 214 303 308 308 342 316 297 291 290 279 287 293 248 242 235 242 234
191 171 179 218 198 193 199 201 181 175 187 183 157 149 169 154 157 153 162 168 165 171 162 160 202 229 317 9 307 286 288 305 318 322 317 311 309 308 305 299 296 249 256 259